Dewpoint
70 70 71 73 73 73 73 73 73 73 73 73 72 72 73 73 73 73 73 73 73 73 72 72 72 72 71 71 71 71 71 70 70 70 70 70 70 69 69 69 68 68 68 69 68 68 67 67 67 68 67 67 67 67 67 67 66 67 66 67 66 64 63 63 64 65 66 68 68 68 68 69 68 68 68 68 69 69 68 68 68 67 67 67 69
71 71 71 72 73 73 73 73 73 73 73 73 72 72 72 72 72 73 73 73 73 72 72 72 72 72 71 72 71 71 71 70 70 70 70 69 69 69 68 69 68 69 70 69 68 68 68 68 68 68 68 67 67 67 67 67 67 66 66 66 66 65 64 63 63 65 66 67 67 68 68 67 68 68 68 68 68 69 69 68 68 67 68 68 68
71 71 71 71 73 73 72 72 72 72 72 72 72 72 72 72 72 72 72 72 72 72 72 72 72 71 71 71 71 71 71 70 70 70 70 69 69 68 68 69 70 70 69 68 68 68 68 68 68 68 68 68 68 68 68 68 67 67 67 66 65 65 65 64 64 66 66 66 66 67 68 67 67 67 68 68 68 68 68 68 68 68 67 68 68
70 70 71 72 73 73 73 72 72 72 72 72 72 72 72 72 71 72 72 72 72 72 72 72 72 72 71 71 71 71 70 70 70 70 70 69 69 69 70 71 71 69 67 67 68 68 69 69 69 69 68 67 68 69 68 68 68 68 67 66 65 65 64 64 65 66 66 66 66 65 64 65 66 67 67 68 68 68 68 68 68 68 68 68 68
70 70 71 71 72 73 72 72 72 72 72 72 72 72 72 72 72 72 72 72 72 72 72 72 72 71 71 71 71 70 70 70 70 70 70 71 71 71 72 71 70 69 69 69 69 68 68 69 69 69 69 69 69 69 68 68 69 69 68 67 65 65 65 64 66 66 66 66 65 64 61 63 66 67 67 68 67 67 67 67 67 67 67 68 67
70 70 70 70 70 72 72 72 72 72 71 71 71 71 72 72 72 72 72 72 72 72 72 72 72 72 72 71 71 71 71 70 70 70 71 70 71 70 70 70 70 69 68 68 68 69 69 70 70 70 70 70 69 69 69 68 68 68 69 68 66 65 65 65 66 66 65 64 62 59 59 62 62 64 67 67 67 67 66 67 67 66 67 67 67
71 71 70 69 69 71 72 72 72 71 71 71 71 71 71 71 72 71 72 72 72 72 72 72 72 72 72 71 71 71 71 71 71 71 70 71 71 70 69 69 69 69 68 68 69 70 70 70 70 70 70 69 69 69 69 68 68 68 69 68 66 65 65 65 66 65 64 63 62 60 59 58 61 63 66 66 66 67 67 67 67 67 67 66 65
71 70 69 69 70 72 72 72 71 71 71 71 71 71 71 71 71 71 72 72 72 72 72 72 72 71 71 72 71 71 71 71 71 71 71 71 70 70 69 70 69 68 68 69 69 69 70 70 69 69 69 69 69 68 69 68 68 68 69 68 66 65 65 65 65 64 63 60 61 61 60 58 57 61 65 67 68 68 67 67 67 67 67 66 65
70 70 69 69 70 72 72 72 71 71 71 71 71 71 71 71 72 72 72 72 72 72 72 71 71 71 72 71 71 71 71 71 71 71 70 70 70 70 70 69 68 68 68 70 70 70 69 69 69 70 69 69 69 68 68 69 69 69 69 69 67 65 65 65 64 63 62 61 59 58 58 58 58 58 62 64 65 67 66 66 67 67 67 66 66
70 70 69 69 70 72 72 72 71 71 71 71 71 71 71 71 71 71 72 72 72 72 71 71 71 71 71 71 71 71 71 71 71 70 70 70 69 69 69 68 68 68 69 69 69 69 69 69 69 69 69 69 69 69 69 69 69 69 69 69 67 66 66 65 64 62 60 59 58 60 61 61 57 57 60 62 64 66 66 66 67 67 66 66 66
69 70 69 69 71 72 71 71 72 71 71 71 71 71 71 71 71 71 71 72 71 71 71 71 71 71 71 71 71 71 70 70 70 70 70 70 69 69 68 69 69 69 69 69 69 70 70 69 69 68 69 69 69 69 69 69 69 69 70 70 68 66 66 64 62 59 59 60 60 59 60 62 60 60 62 63 65 66 66 66 66 65 65 65 65
69 69 70 69 72 71 71 72 72 72 71 71 71 70 71 71 72 72 72 71 71 71 71 71 71 70 70 70 70 70 70 71 70 71 71 70 70 69 69 69 69 69 69 70 70 69 69 69 69 69 69 69 69 69 69 69 69 69 70 69 68 67 66 64 60 60 60 59 60 61 59 58 59 60 63 62 62 63 63 64 64 64 64 64 64
69 69 69 71 71 72 72 72 72 72 71 71 71 71 72 72 72 71 71 71 71 71 71 71 71 71 71 70 70 71 70 70 70 71 71 70 70 69 69 69 69 69 69 70 70 69 69 69 69 69 69 69 69 68 69 69 69 69 69 68 67 66 65 64 59 59 59 60 60 60 59 61 61 63 62 63 62 62 62 63 63 63 63 62 61
69 69 69 69 70 72 72 72 72 72 72 72 72 72 72 72 71 71 72 72 71 71 71 71 71 71 71 71 71 71 70 70 70 70 70 70 70 69 70 69 69 69 69 69 69 69 69 69 69 69 69 69 69 68 69 69 69 69 68 68 67 66 66 64 63 59 59 59 61 59 61 62 61 64 63 63 62 62 62 62 61 61 61 60 61
68 69 70 70 69 70 73 72 72 72 72 72 72 72 72 72 72 72 71 71 71 71 71 71 71 71 71 70 70 70 70 70 69 70 70 70 70 70 70 70 69 70 70 70 69 70 69 69 69 69 68 69 69 69 69 69 68 68 68 67 67 66 64 59 59 60 60 60 61 60 59 61 65 64 63 63 63 62 61 61 62 61 61 61 61
70 70 70 70 69 70 70 72 73 73 72 72 72 72 72 72 72 72 71 71 71 71 71 71 71 71 71 71 70 70 69 69 69 70 70 70 70 70 70 70 70 70 70 70 70 69 69 69 69 69 69 69 69 69 69 69 68 68 68 67 67 66 64 62 60 60 60 61 61 62 62 62 66 64 63 63 62 62 62 61 60 61 61 61 61
69 70 70 69 69 69 69 69 71 73 72 72 72 72 72 72 71 72 71 71 71 71 71 71 71 71 71 71 70 70 70 69 69 69 70 70 70 69 70 70 70 70 70 70 70 70 69 69 69 69 69 69 69 69 69 69 68 68 68 67 67 66 65 63 60 61 60 60 60 60 61 60 63 64 63 62 62 62 62 62 62 61 62 62 61
70 70 69 69 69 68 69 70 71 71 72 72 72 72 72 71 71 71 71 71 71 71 71 71 71 71 70 70 70 70 69 70 70 69 70 70 69 69 69 70 70 70 70 70 70 69 69 69 69 69 68 68 68 68 69 69 69 68 68 67 67 66 65 63 61 61 62 62 59 61 62 65 67 64 63 63 62 62 62 62 61 61 60 61 61
69 69 69 68 68 68 69 70 71 71 71 71 70 71 72 71 71 71 71 71 71 71 71 71 71 71 70 70 70 70 70 70 70 70 69 69 70 70 69 69 69 70 70 69 69 69 69 68 68 67 67 67 67 68 69 69 69 68 68 67 67 66 66 63 61 61 62 62 62 62 62 65 65 63 63 63 62 62 62 61 61 61 61 61 60
69 69 68 69 69 68 69 69 70 70 71 71 70 70 72 72 72 71 71 71 71 71 71 71 70 70 70 69 69 70 70 70 70 69 70 70 69 69 69 69 69 69 69 68 69 68 67 67 67 67 66 67 68 68 68 69 69 68 68 68 67 67 65 63 63 62 61 61 63 62 64 65 63 63 62 63 62 62 62 62 61 61 61 60 61
69 69 69 69 70 69 69 69 70 70 71 70 70 70 71 71 71 71 71 71 71 69 69 69 69 69 69 70 70 71 71 71 69 68 69 69 70 69 69 69 69 69 68 68 67 66 67 67 67 66 66 67 68 68 68 69 69 69 68 68 68 65 65 65 64 63 63 61 62 60 64 63 63 63 63 63 62 62 62 61 61 61 61 61 61
68 68 69 69 69 69 68 69 69 70 71 70 70 70 72 71 70 70 70 71 69 69 70 70 69 70 69 70 71 71 71 70 69 68 68 69 68 69 69 69 68 68 67 67 67 67 67 66 66 66 66 65 65 66 68 69 69 69 68 68 65 64 66 65 65 63 63 62 62 62 63 63 63 62 63 63 62 62 62 62 62 62 61 61 61
68 67 68 68 69 68 68 68 69 70 70 70 70 70 71 71 70 70 70 69 69 70 71 69 69 70 70 70 71 71 70 70 69 68 68 68 68 69 68 67 67 66 66 67 67 67 67 66 66 66 65 64 64 65 65 65 67 69 68 67 65 65 65 66 65 64 63 63 62 65 64 64 64 63 63 62 62 62 62 62 62 62 62 61 61
66 66 67 68 68 68 68 68 68 69 70 70 70 69 70 71 71 71 71 72 71 70 70 70 70 71 70 70 70 69 69 72 68 69 69 68 68 67 67 67 67 68 68 67 67 68 67 66 65 65 64 64 64 62 62 64 66 68 68 66 64 65 65 65 63 64 64 63 61 66 65 64 63 63 62 62 62 62 62 61 62 62 61 61 62
65 67 67 67 68 68 68 68 68 69 69 69 70 69 70 71 69 71 71 71 70 70 70 70 71 70 69 70 69 69 70 70 70 70 70 67 67 67 67 66 66 66 66 66 66 65 65 63 64 64 64 63 62 64 63 63 66 66 67 66 65 65 65 65 64 63 64 63 65 66 65 65 64 63 63 63 62 63 63 62 63 62 62 61 61
66 66 66 67 69 68 68 68 68 68 69 69 69 69 70 69 69 70 70 70 70 70 70 70 70 70 70 70 70 69 70 70 70 70 69 67 66 65 66 67 67 67 67 66 65 66 65 64 64 63 63 64 64 65 65 65 64 65 65 66 65 65 64 64 63 64 65 64 66 66 67 65 65 64 64 64 63 63 63 62 63 62 61 62 62
66 66 67 67 69 68 68 68 67 69 68 68 69 69 68 68 69 69 69 69 70 69 70 70 69 69 69 69 69 69 70 70 70 70 68 67 66 66 65 66 66 66 68 67 66 66 66 65 66 66 65 64 63 63 64 64 64 63 65 64 64 64 65 63 64 64 65 64 66 66 67 66 67 65 65 65 64 64 63 63 62 61 61 62 62
66 67 68 68 69 68 68 67 68 69 68 68 68 68 68 69 69 70 69 69 69 68 69 69 69 69 70 69 69 69 69 69 68 68 68 67 66 66 66 65 66 66 67 67 66 66 66 66 66 66 62 62 61 64 63 62 64 65 64 64 65 65 65 63 64 65 65 65 66 66 67 67 68 66 65 64 64 63 63 62 61 61 62 62 62
66 67 67 67 69 69 69 68 68 68 68 68 68 68 68 68 68 68 68 69 68 68 68 69 68 68 69 68 69 69 68 67 68 67 68 67 67 67 66 65 66 66 66 66 66 67 66 66 66 64 65 65 66 65 64 65 65 66 65 64 64 64 65 65 65 65 65 67 67 65 66 68 68 67 65 64 64 63 62 62 61 61 62 62 61
67 67 67 68 68 68 68 68 68 68 68 68 68 67 67 68 68 68 69 69 68 68 68 68 69 69 68 68 69 69 68 67 67 67 67 67 68 68 67 66 66 66 67 66 66 66 66 65 66 65 62 66 65 65 66 66 63 64 64 64 64 64 65 65 65 65 66 68 69 65 67 68 68 67 66 65 64 63 62 62 62 62 62 62 62
66 66 68 68 68 68 67 68 68 69 69 67 68 68 68 67 68 69 68 68 67 68 68 68 68 68 68 68 68 68 68 68 67 67 67 67 67 67 67 67 67 67 67 66 67 66 66 66 66 66 66 66 66 66 66 65 65 62 64 63 64 66 65 66 66 65 66 68 68 66 64 68 67 67 67 66 65 63 63 63 62 62 62 62 62
66 66 67 68 68 67 68 68 68 69 68 67 67 67 68 68 68 69 68 68 68 67 67 68 67 68 68 68 68 68 68 68 67 67 67 67 67 68 67 67 67 67 67 67 67 66 66 65 65 66 65 64 65 65 66 66 64 62 63 63 63 63 64 65 64 65 66 68 68 67 66 65 66 66 67 66 66 65 63 63 63 63 64 63 64
65 66 67 67 67 67 68 68 68 68 67 67 67 67 68 67 67 67 67 67 67 67 67 67 67 67 68 68 68 68 68 67 67 67 67 66 66 66 66 66 66 66 66 66 66 66 66 65 65 65 65 64 64 65 64 65 64 63 63 62 65 62 64 63 65 65 67 67 68 68 66 65 64 67 67 66 66 66 64 63 63 63 64 64 64
64 67 66 66 67 68 68 68 68 67 67 67 67 67 67 67 67 67 67 68 67 67 67 67 67 67 68 68 68 67 67 68 67 67 67 66 67 66 66 66 66 66 66 66 66 65 65 65 64 63 63 63 63 64 63 63 62 62 63 62 64 65 65 64 65 65 67 67 68 67 67 65 64 64 64 66 67 67 66 66 64 64 64 64 64
65 67 66 66 67 67 67 67 67 67 67 67 67 66 66 66 66 66 67 67 67 67 67 67 67 67 67 67 67 67 67 67 67 67 67 66 66 66 65 65 66 66 66 66 66 65 65 65 64 63 64 62 63 63 62 62 62 61 63 64 62 63 65 65 65 66 67 67 68 67 67 66 66 64 64 63 66 67 66 67 65 63 64 64 64
66 66 66 67 67 67 68 67 67 67 67 67 67 67 66 67 67 67 67 67 67 66 67 67 66 66 67 67 67 67 67 67 67 66 66 65 65 65 65 66 66 66 65 65 65 64 65 64 64 64 62 62 62 62 62 62 63 62 63 64 65 65 64 65 65 64 65 66 66 66 66 66 66 67 67 66 65 64 67 67 67 67 65 65 64
66 66 66 66 66 67 67 67 66 67 66 66 67 67 66 67 67 67 66 67 66 66 67 66 66 66 66 66 66 67 67 67 66 66 67 66 66 65 65 66 66 65 65 65 64 65 65 64 64 64 63 62 61 62 62 62 62 62 62 63 64 64 65 64 65 65 66 65 65 65 65 64 66 65 68 68 67 65 67 67 67 67 67 67 65
66 66 66 66 65 66 67 67 67 66 66 66 66 66 67 67 67 66 67 66 66 66 66 66 66 65 65 65 66 66 66 66 66 66 66 66 66 65 66 66 66 65 65 65 65 65 65 65 64 64 63 62 61 61 61 61 61 61 62 63 63 64 64 64 64 65 66 65 65 64 64 66 66 66 66 67 66 67 65 66 67 66 66 66 66
66 66 66 66 67 67 67 67 66 66 66 66 66 66 67 67 66 66 66 66 66 66 66 66 66 66 65 65 65 66 65 66 66 66 66 65 65 65 66 66 66 65 64 64 64 65 64 64 64 63 63 62 63 62 62 62 61 61 61 62 62 63 64 65 64 65 65 65 64 64 64 64 65 65 66 65 67 66 67 66 63 63 65 65 66
66 66 66 66 66 66 65 66 66 66 66 66 66 66 65 65 65 66 65 65 65 65 66 66 66 65 65 64 65 65 64 65 65 66 66 65 65 65 65 66 66 65 64 64 64 63 64 64 64 63 62 62 62 62 62 62 62 62 62 63 64 64 63 63 63 63 63 64 65 65 65 65 66 65 65 65 65 66 66 66 65 63 65 64 64
66 66 66 65 65 65 64 64 65 65 65 65 65 65 65 65 65 65 64 65 64 65 65 65 65 65 65 64 64 64 64 64 65 65 66 65 65 66 66 65 65 65 64 64 64 64 64 64 63 63 62 62 62 62 62 62 60 60 61 62 62 63 64 63 63 63 63 64 65 66 66 66 66 64 65 65 64 64 65 65 65 65 64 63 63
65 65 65 65 65 64 64 64 64 65 65 65 65 65 65 64 64 64 64 64 63 63 64 65 65 65 65 65 65 64 65 65 66 66 66 65 65 65 65 65 65 65 64 64 64 64 64 64 63 62 62 61 61 62 62 61 59 58 58 58 60 62 62 62 62 62 62 63 64 64 64 64 65 65 66 65 64 64 64 65 65 65 64 64 64
65 65 66 65 64 63 64 63 64 65 66 66 65 65 66 66 65 65 64 63 64 65 64 65 65 64 65 65 65 65 64 65 66 66 66 65 65 65 65 65 65 65 64 64 64 64 64 63 63 62 61 61 62 62 62 62 58 59 59 57 56 57 59 61 61 61 63 65 64 63 62 64 63 64 64 64 63 63 63 64 63 64 64 64 64
64 65 65 64 64 63 63 63 64 65 65 65 65 66 65 66 66 66 66 65 64 65 65 65 65 65 64 65 65 66 65 65 65 64 64 65 65 65 65 65 65 65 64 64 64 64 64 64 63 63 62 60 60 60 62 62 60 58 56 56 56 56 55 56 58 62 64 64 63 63 63 63 64 63 63 63 63 64 64 63 63 63 63 63 62
64 64 65 64 64 63 63 63 63 63 64 65 65 64 65 65 65 65 65 65 65 64 64 63 64 64 64 65 65 66 66 65 65 64 64 65 65 65 65 65 65 65 64 64 64 64 63 64 63 63 62 61 60 61 62 63 62 62 58 55 55 54 55 57 58 60 62 61 63 63 63 62 63 63 63 62 63 63 63 62 61 61 61 61 62
64 64 65 65 64 62 62 62 63 63 64 65 65 65 64 64 63 63 63 62 62 61 62 61 62 63 62 64 64 65 65 65 65 64 64 64 65 65 65 64 65 64 64 64 64 64 63 64 63 63 62 63 61 60 60 62 62 62 62 61 60 56 55 56 55 53 62 63 62 61 62 63 63 63 62 61 62 61 60 59 59 59 59 60 61
63 64 64 65 65 63 62 63 63 63 63 64 65 65 64 64 64 63 63 62 61 61 63 64 63 62 64 64 64 65 64 64 65 65 65 65 65 64 65 64 64 64 64 64 65 64 63 62 63 63 63 62 62 60 60 61 61 62 62 62 63 61 59 55 54 56 54 59 61 61 62 62 61 60 59 60 60 60 59 58 58 58 58 60 60
63 64 64 65 64 64 63 63 63 63 63 64 65 65 64 64 64 64 64 63 62 62 64 64 65 64 64 64 64 64 65 65 65 64 65 65 64 64 64 64 64 63 63 63 64 64 64 63 64 64 63 63 63 62 62 62 60 60 61 62 62 61 59 58 56 55 54 54 56 61 61 60 59 59 59 58 58 58 58 57 56 57 58 58 58
63 63 63 64 64 64 64 63 63 63 63 64 64 65 65 65 65 64 63 63 63 63 62 63 63 63 64 63 63 62 63 64 64 65 65 64 65 64 65 64 64 63 62 62 64 64 64 64 64 64 64 64 63 64 63 62 62 61 61 61 61 60 59 60 59 58 54 54 55 56 57 59 59 58 57 57 55 55 55 55 54 57 58 59 59
62 63 63 64 64 63 63 63 62 63 62 64 65 65 65 64 64 64 64 63 62 62 62 62 62 63 63 63 63 62 61 62 63 64 65 64 64 64 64 64 65 64 63 62 64 65 64 64 64 65 65 65 64 64 63 63 63 63 61 61 60 59 58 58 59 57 56 56 53 56 56 56 55 56 56 55 54 53 53 54 55 54 57 57 56
62 63 63 63 63 63 63 63 63 63 63 64 64 63 63 64 64 64 64 63 63 62 61 62 61 62 62 62 62 61 61 61 62 63 65 64 65 64 64 64 64 64 63 63 64 63 65 65 64 64 65 65 64 64 64 64 63 62 61 60 59 59 57 57 57 58 57 55 55 55 56 54 54 55 53 53 53 52 51 53 52 53 55 54 51